Wind_Speed
15 15 12 9 8 7 8 9 10 10 9 10 12 11 10 10 8 10 8 9 10 10 10 12 12 11 12 12 11 9 7 6 6 7 8 9 9 9 9 10 10 10 10 10 10 12 15 19 21 23 25 26 27 27 27 27 28 31 32 33 36 36 35 30 20 17 21 20 23 26 28 28 28 29 30 28 26 26 25 26 26 27 29 27 24 23 22
14 14 12 9 9 8 8 8 9 9 9 12 13 12 10 10 10 10 8 12 13 10 11 13 12 9 9 6 5 6 6 8 9 10 11 12 11 11 11 10 10 10 10 11 11 10 12 17 20 22 23 24 26 26 27 28 29 31 32 34 33 26 16 12 15 20 24 26 29 32 31 30 30 32 31 29 28 27 28 29 28 28 28 26 24 23 23
10 11 11 10 10 10 11 13 12 9 8 8 9 8 5 5 8 7 4 8 10 9 8 9 5 3 5 5 6 8 8 8 9 10 11 13 12 11 10 10 9 10 9 9 9 8 11 17 20 22 23 24 25 26 27 28 30 32 32 29 22 17 17 16 19 25 29 30 33 35 32 30 32 33 33 32 30 29 31 32 30 27 28 27 25 24 24
6 7 9 11 9 8 10 13 13 10 7 6 7 6 6 7 8 6 4 5 9 9 6 5 3 6 8 8 9 8 8 8 11 13 14 12 10 9 9 9 9 9 9 9 10 10 14 18 20 23 24 24 24 27 29 30 30 30 27 22 21 23 25 27 29 30 32 35 35 31 30 32 35 34 34 34 33 33 34 34 31 28 27 28 27 26 25
6 7 8 8 5 4 6 9 11 11 9 7 5 4 6 8 8 7 7 8 9 6 6 6 5 7 9 10 10 9 9 10 12 12 11 9 9 10 10 10 10 11 10 10 11 12 14 18 22 25 25 25 27 30 30 28 26 24 22 23 26 28 28 28 31 33 33 33 31 30 31 32 33 34 35 35 35 36 37 35 32 29 27 28 28 27 27
6 7 3 4 4 5 7 6 8 11 12 12 10 7 7 8 6 4 6 7 5 3 8 11 12 11 10 10 10 9 8 9 10 9 9 9 10 10 9 10 10 10 9 8 10 13 15 18 21 22 23 26 28 27 24 23 23 23 23 25 27 28 28 30 33 34 33 33 35 37 33 30 32 35 35 34 35 36 35 33 31 30 29 29 29 28 28
4 3 4 4 6 8 7 4 3 7 11 13 11 4 3 5 5 5 7 8 7 6 8 11 10 8 4 1 4 6 7 8 9 9 9 9 9 9 9 10 9 8 7 7 9 12 15 17 17 18 22 25 24 21 20 20 21 22 25 27 28 29 31 34 36 37 38 40 42 40 34 32 34 34 33 33 34 33 32 31 31 31 30 29 29 29 30
2 1 3 6 7 5 4 2 2 2 3 7 8 3 2 4 5 6 7 8 7 7 8 5 4 6 4 5 3 2 6 8 9 10 11 10 10 10 9 9 9 8 9 11 12 13 14 16 18 20 22 24 22 19 19 20 21 24 27 29 30 32 35 38 39 39 40 43 44 41 34 31 32 32 32 33 33 31 31 31 31 31 30 29 30 31 31
2 1 2 4 2 1 2 2 2 3 3 5 7 4 4 5 3 5 5 6 6 5 4 2 4 6 7 5 3 3 0 4 4 5 7 9 9 9 8 7 9 10 12 14 14 14 15 16 19 21 22 22 21 19 19 21 24 28 30 30 32 35 39 41 41 40 41 43 42 36 30 28 31 33 34 33 32 30 30 30 31 31 30 30 30 31 31
2 3 0 1 0 2 5 4 3 2 3 4 5 5 3 3 2 1 4 5 5 4 5 6 7 7 6 3 2 4 4 2 3 5 4 4 4 4 5 5 6 8 10 12 12 13 14 15 17 19 20 21 20 19 21 24 27 30 31 32 36 39 41 40 39 38 39 38 35 30 28 30 33 35 34 32 30 29 29 30 31 30 30 29 29 30 30
1 4 3 3 3 4 5 5 5 1 1 4 5 6 3 2 5 3 2 5 4 3 4 4 6 7 5 4 3 4 4 3 4 5 6 6 6 8 9 9 8 8 10 11 11 12 13 13 15 17 19 20 20 21 22 25 28 29 31 35 39 39 36 34 34 35 35 35 35 35 35 36 35 35 34 31 28 28 29 30 30 30 29 28 28 30 30
1 2 2 3 3 2 2 4 6 5 3 2 6 5 3 3 5 3 2 4 4 7 6 3 5 4 5 6 2 3 2 5 5 5 7 7 7 8 10 12 14 13 11 11 11 11 12 12 13 15 18 20 20 21 22 25 26 29 32 36 36 33 29 30 33 34 36 39 40 39 38 36 34 34 33 30 27 28 29 30 29 28 26 25 27 28 28
3 1 2 2 3 3 3 6 9 8 3 3 5 5 5 4 4 3 5 2 3 8 8 5 4 2 2 4 2 2 6 8 7 6 7 9 9 10 11 13 15 13 11 9 9 9 9 10 12 14 17 18 18 19 21 23 26 28 30 31 30 27 27 30 32 34 37 41 40 38 35 32 33 36 35 30 28 29 29 27 26 24 24 24 25 26 26
2 2 2 2 2 2 6 12 11 5 2 3 4 4 3 4 2 5 8 5 4 9 10 8 6 3 2 4 6 9 10 9 8 8 7 9 11 12 13 14 14 14 12 9 8 7 7 9 10 12 15 16 17 18 20 22 23 24 24 26 28 28 28 29 30 32 34 35 34 32 31 30 33 36 34 29 28 28 26 24 22 22 22 22 23 24 24
1 1 2 1 3 2 11 14 8 3 3 5 5 3 2 3 2 6 8 5 5 8 9 9 8 8 7 8 10 11 11 10 9 9 8 8 8 9 12 13 12 13 12 9 7 7 7 8 9 11 14 15 15 16 17 17 18 19 21 24 27 28 27 27 28 30 30 30 29 28 30 32 34 35 32 29 28 26 24 22 21 21 21 20 21 22 22
1 1 3 2 4 5 10 8 3 3 2 2 4 4 4 2 3 5 7 5 5 8 10 10 10 11 10 9 10 10 10 9 9 9 8 8 7 8 11 11 10 11 12 9 6 5 6 7 9 12 14 13 12 13 13 13 15 17 20 24 25 25 25 25 26 27 27 27 28 29 30 32 32 32 31 29 27 25 22 20 19 19 19 17 17 17 18
3 4 5 5 4 4 6 5 4 5 6 5 4 3 5 5 3 4 5 6 6 8 11 12 11 11 10 9 10 10 9 9 9 9 8 8 8 9 11 10 8 8 9 8 6 5 5 7 9 11 12 11 11 12 12 13 15 19 21 23 24 24 23 23 24 25 24 25 26 28 28 27 27 29 30 28 25 23 20 18 18 17 16 14 13 13 14
3 3 3 4 3 2 5 6 5 5 6 6 5 5 7 6 4 5 5 5 5 6 9 11 10 8 8 9 9 9 8 8 8 7 7 8 9 10 10 9 8 7 7 8 7 6 6 7 9 9 10 10 10 11 12 13 16 19 22 23 23 24 23 23 23 22 22 22 22 23 22 22 23 25 27 26 24 21 18 16 15 14 12 11 11 11 13
4 2 2 5 5 3 3 4 5 6 7 5 4 6 6 4 5 7 6 6 6 6 7 10 9 7 8 9 8 7 7 8 7 7 7 6 7 8 7 6 4 4 5 6 7 7 7 7 7 7 7 7 9 11 13 14 17 19 21 22 23 23 23 21 20 20 21 21 21 20 18 18 20 22 23 23 21 18 14 12 11 11 11 11 10 11 13
2 4 5 3 5 3 2 3 3 4 5 5 5 5 4 5 7 8 7 7 6 6 6 8 8 7 7 7 7 5 4 4 4 5 5 4 5 7 6 4 5 6 6 6 6 6 5 6 6 6 6 7 9 11 13 14 17 20 21 22 22 21 20 19 18 18 19 19 19 17 16 15 17 17 18 18 16 12 10 9 9 9 9 9 9 10 11
1 5 7 5 2 2 4 4 4 4 4 4 5 5 6 7 8 9 10 9 8 7 7 6 6 7 6 4 4 4 3 2 2 2 4 4 5 7 8 7 7 7 5 3 4 3 3 5 7 7 8 9 10 11 13 15 18 20 19 19 18 17 16 15 14 14 14 13 12 11 11 11 12 12 11 11 10 8 7 8 8 7 7 8 8 8 9
3 3 4 5 4 2 1 2 5 5 5 3 7 7 8 9 8 9 11 10 9 9 8 7 7 7 5 5 5 5 4 3 3 2 1 3 4 6 6 5 4 3 2 2 4 5 5 6 8 8 9 11 11 11 12 15 16 16 15 12 11 10 11 10 10 10 10 9 9 9 9 9 10 9 8 7 7 7 7 7 7 7 7 7 8 9 9
2 1 2 0 1 4 3 5 6 5 5 5 8 8 8 8 7 8 11 11 11 11 10 10 9 8 6 5 5 5 5 4 2 2 3 3 3 5 5 6 4 2 2 5 6 6 6 7 8 9 10 12 13 12 12 12 12 13 13 12 11 9 8 7 7 9 9 8 8 8 8 8 10 11 9 7 6 6 6 6 6 6 7 7 8 8 8
3 5 6 4 5 7 7 8 8 7 7 7 8 7 7 7 8 10 12 11 10 10 10 10 10 9 8 8 7 7 6 5 5 6 8 9 9 9 8 6 3 1 4 6 7 8 9 10 10 11 11 12 13 13 13 14 15 16 18 18 17 14 11 6 4 6 7 7 8 9 10 12 12 11 9 7 6 5 5 6 6 7 6 6 5 5 5
4 4 4 7 9 9 8 9 10 10 9 8 7 7 8 9 10 11 11 10 8 9 10 9 9 11 10 9 8 9 7 6 9 11 11 12 11 8 5 2 1 3 5 7 9 10 12 12 13 13 14 14 15 16 17 19 20 20 20 19 17 15 12 8 6 6 8 12 14 15 15 14 13 11 9 8 7 5 4 4 5 5 4 3 3 3 4
6 2 4 8 10 7 6 8 10 10 10 10 9 8 9 10 11 11 10 9 8 8 9 7 7 12 14 11 10 10 9 10 13 14 12 8 5 2 1 1 2 4 6 9 11 13 14 16 16 17 19 20 19 18 19 20 19 16 13 12 12 16 18 16 13 13 14 16 16 15 13 12 11 9 8 9 8 7 6 5 4 4 4 3 3 3 3
3 1 4 8 10 8 7 8 8 8 9 9 8 7 7 7 8 10 10 10 11 11 11 10 10 13 15 15 14 13 12 12 13 13 11 8 6 4 3 3 3 5 8 11 14 16 17 19 20 21 23 24 21 18 18 17 14 12 12 14 17 19 16 12 12 15 16 16 15 13 11 9 8 8 9 10 10 9 9 8 7 6 5 4 4 2 1
4 2 4 7 7 4 5 6 6 6 5 3 1 2 1 3 7 10 10 9 10 10 11 13 14 12 11 13 13 11 11 11 10 9 10 12 12 8 4 4 4 6 10 13 15 18 19 21 22 22 23 24 20 16 14 13 12 13 14 16 17 15 11 9 11 13 13 13 11 9 7 7 8 9 10 10 10 10 9 8 7 6 6 6 5 2 1
5 5 5 7 8 6 4 3 3 4 4 2 1 2 3 5 8 8 7 7 7 7 7 11 13 11 10 11 11 8 7 7 7 9 11 14 15 11 5 4 6 7 10 12 15 18 20 21 18 17 18 19 16 12 10 11 11 13 13 13 13 13 11 11 11 10 9 8 7 6 6 7 8 9 9 8 8 8 7 6 6 5 6 7 6 3 3
5 4 4 4 4 5 5 4 5 5 5 4 5 5 5 6 7 6 5 5 6 6 5 6 9 10 11 10 10 8 7 7 8 11 13 15 16 14 7 2 6 6 7 11 15 17 17 16 12 11 12 11 8 8 9 10 11 11 11 12 14 15 14 13 11 10 10 9 9 8 8 8 8 9 8 7 6 6 5 6 6 6 6 8 7 5 6
5 4 4 4 3 4 5 5 5 5 4 4 5 5 5 6 7 6 5 5 5 5 5 5 6 7 9 9 9 10 11 11 12 13 14 15 16 15 9 2 5 5 7 11 14 15 14 12 10 9 9 9 9 9 8 9 10 11 13 15 16 15 15 13 12 11 11 11 11 10 9 9 8 7 7 6 6 6 6 6 6 6 7 7 8 8 8
4 3 4 4 4 6 6 4 4 5 4 5 6 6 5 5 6 6 5 5 5 5 5 6 6 7 9 11 11 10 10 11 12 13 15 16 16 16 12 6 5 8 9 11 14 16 16 14 12 11 12 13 12 8 7 10 15 18 18 17 16 15 14 12 12 11 11 11 11 10 9 8 7 7 7 6 7 7 7 7 7 7 7 7 8 9 9
4 5 5 4 4 6 6 4 4 5 5 5 5 4 4 4 5 5 4 4 4 4 4 5 6 9 10 11 10 10 10 10 9 10 13 16 18 17 14 10 8 7 8 9 13 17 18 18 18 18 16 14 12 9 10 15 18 17 16 14 14 14 12 10 10 11 11 10 10 8 7 7 7 7 8 7 6 7 8 8 8 8 7 7 9 9 8
4 6 4 2 3 5 5 3 3 4 4 4 4 4 4 4 4 4 4 4 4 4 5 6 8 9 9 8 8 9 8 6 5 7 10 15 18 20 17 11 7 5 5 8 13 17 18 17 18 18 17 16 16 16 17 16 12 9 10 12 12 12 12 11 11 12 11 10 10 8 7 7 6 7 7 7 6 7 8 9 8 8 7 8 8 8 8
4 5 4 2 2 4 4 4 4 4 4 4 4 4 4 4 4 5 5 4 4 5 7 8 9 9 8 8 8 8 7 5 5 8 11 14 17 19 15 9 4 2 3 6 9 13 14 14 15 17 19 18 17 17 15 11 7 7 10 12 12 12 13 13 12 11 10 10 9 8 7 6 6 6 7 7 7 7 8 8 8 8 8 9 8 8 9
5 5 4 4 4 4 4 4 4 4 4 4 3 3 3 4 4 4 4 4 5 6 7 8 9 9 9 9 8 7 7 7 8 9 11 14 16 15 11 5 1 1 3 3 3 6 8 10 13 17 18 15 11 9 9 7 7 9 10 10 12 13 13 13 12 11 10 9 8 7 7 7 6 7 7 7 7 7 7 8 8 8 8 9 9 10 11
7 6 4 4 4 5 5 4 4 5 5 4 4 4 4 4 4 5 5 6 8 8 8 8 8 7 7 7 7 7 8 8 8 8 9 11 11 8 5 3 3 4 4 3 4 8 10 8 5 7 9 10 10 9 8 8 8 9 10 11 14 15 14 13 12 11 10 9 8 8 9 8 7 7 6 6 6 6 7 8 8 8 8 9 10 12 13
7 7 6 6 6 6 6 7 8 8 7 5 5 6 7 6 7 8 8 9 10 10 10 10 9 8 8 9 9 9 9 10 9 7 6 7 6 5 5 5 5 4 2 1 6 10 12 9 5 3 5 8 11 11 10 9 10 12 14 14 14 14 14 14 12 11 10 9 9 9 9 8 8 7 6 6 6 6 7 8 8 8 8 9 11 12 13
7 7 7 7 8 8 8 9 10 10 8 6 5 6 8 9 9 9 10 11 12 12 12 12 11 9 9 8 7 7 8 10 10 9 7 5 4 4 6 5 3 2 1 3 9 12 12 10 9 8 6 6 8 10 11 12 12 12 13 13 12 12 12 12 11 10 10 10 9 9 9 8 8 7 7 7 7 6 7 8 8 8 9 10 11 13 14
4 4 5 6 7 7 7 7 8 9 10 9 7 7 8 10 10 9 10 11 12 12 13 13 11 9 8 7 6 7 8 9 10 9 8 6 4 4 5 4 4 3 2 8 13 14 11 9 8 8 8 9 10 11 12 11 11 11 11 11 12 12 12 12 11 10 10 10 10 9 9 8 8 8 8 8 8 8 8 9 9 10 10 10 11 13 14
4 5 6 6 6 6 6 6 7 9 11 12 11 10 10 10 10 9 9 11 12 13 14 13 11 10 9 9 9 10 10 10 10 9 8 7 5 4 4 3 3 4 5 9 11 10 9 8 8 9 10 11 11 9 9 9 11 11 11 11 12 12 11 11 9 9 8 8 8 8 8 8 8 8 8 9 9 9 10 11 11 11 11 12 12 14 15
5 6 6 6 6 7 7 7 7 8 9 11 12 11 10 11 10 9 9 10 12 13 13 13 12 11 10 11 11 11 12 11 11 10 9 6 4 3 3 3 4 5 6 8 9 9 9 9 9 9 10 9 8 7 7 9 11 11 11 11 10 10 9 9 8 7 7 6 6 6 6 7 7 8 8 9 11 12 12 13 14 14 15 15 16 16 16
6 6 5 5 5 7 8 8 7 7 8 11 12 11 9 10 10 9 10 11 11 11 11 12 12 11 10 11 11 11 11 11 11 11 11 9 6 4 3 1 3 4 6 8 9 8 7 8 8 9 10 10 9 9 9 9 10 10 10 9 9 8 8 8 7 7 7 6 6 7 7 8 9 9 9 10 12 12 13 14 15 16 17 18 19 20 20
7 7 5 5 7 7 8 9 8 7 7 10 11 10 9 10 11 10 10 11 11 10 10 11 12 11 11 11 10 10 10 11 11 10 10 9 8 8 7 4 1 5 6 6 5 4 5 8 10 11 11 11 11 10 9 9 9 9 8 9 9 9 8 8 7 6 6 6 6 6 6 7 7 7 7 8 8 9 10 12 13 15 16 18 20 21 22
8 8 7 6 7 8 8 8 7 6 7 9 10 9 9 11 12 11 11 11 11 11 11 11 11 11 11 11 11 10 10 9 9 8 7 5 4 7 9 7 1 5 7 7 5 4 5 8 11 12 12 11 9 9 8 8 7 7 8 9 9 9 9 8 8 7 7 6 6 5 5 4 4 4 5 6 7 8 9 10 11 13 14 15 17 19 21
9 9 7 6 6 6 7 7 7 7 8 9 9 9 10 12 12 13 12 12 11 10 10 10 10 10 9 9 10 10 9 8 7 5 4 4 5 6 8 6 2 4 6 7 7 5 6 9 11 11 11 10 9 9 9 9 8 7 8 9 10 10 9 9 8 8 7 7 6 6 5 5 5 5 5 6 7 9 10 12 13 14 16 17 17 18 18
9 8 7 6 5 6 6 7 8 9 8 7 6 7 11 13 14 14 13 12 10 10 10 8 8 7 7 7 7 7 8 8 6 4 3 3 5 6 6 4 2 3 4 5 6 6 7 9 11 11 11 11 11 11 11 10 9 9 9 10 11 10 10 10 9 9 8 8 7 7 7 7 7 7 6 7 8 9 11 12 14 16 18 19 19 18 18
8 8 7 6 6 7 7 8 8 7 6 6 6 8 11 13 14 14 13 12 11 11 11 10 8 8 6 6 5 5 6 6 5 3 3 4 5 6 5 4 2 4 5 4 5 7 7 8 10 12 12 13 14 14 14 13 11 10 11 12 12 12 12 11 10 10 10 10 10 9 10 9 9 8 7 8 9 10 11 12 15 17 18 18 18 18 17
7 7 6 5 4 5 6 6 5 6 7 8 9 9 10 11 13 14 14 13 13 12 11 10 10 9 8 7 7 6 5 5 6 6 7 7 7 6 5 4 4 6 7 6 6 7 7 8 9 11 13 15 16 17 16 15 14 13 13 14 15 14 13 12 11 11 12 12 12 12 12 11 9 8 8 9 10 11 11 13 15 16 16 16 16 16 15
9 8 7 5 4 5 6 5 5 7 9 10 10 11 10 10 10 13 16 16 15 14 13 12 11 10 9 8 8 7 6 6 7 8 8 8 7 6 6 6 6 7 9 9 9 9 9 8 9 11 13 15 17 18 17 16 16 16 16 17 18 17 16 14 13 13 13 13 13 14 13 11 9 9 9 10 11 11 12 13 14 15 15 16 16 16 15
10 10 9 8 7 7 7 7 8 9 10 11 11 12 12 10 9 13 16 16 14 13 14 14 14 14 12 10 10 10 9 9 9 9 8 8 8 7 7 7 8 9 10 11 12 13 12 11 10 11 13 15 18 19 19 19 18 18 18 19 20 20 19 17 16 16 16 15 15 14 13 12 10 10 10 11 11 12 12 12 13 14 14 15 15 16 16
10 9 8 8 9 9 8 7 7 8 9 10 11 13 13 10 9 12 14 14 12 12 12 11 13 16 17 15 14 15 14 12 11 10 9 9 9 9 9 9 10 10 11 12 13 13 14 13 13 13 14 16 18 20 21 21 21 20 20 21 22 21 20 19 18 17 17 17 16 15 14 13 12 13 13 12 11 11 12 13 13 14 14 15 15 16 17
Wind_Direction
230 225 220 194 176 198 198 191 201 199 186 175 181 203 199 159 171 228 227 182 193 224 224 219 224 212 205 210 207 204 204 189 169 158 166 181 187 183 180 182 182 180 183 188 190 196 197 197 201 204 207 209 209 210 210 207 205 204 203 202 204 206 205 201 185 143 135 166 203 216 216 215 217 220 223 225 226 229 232 232 236 236 231 232 238 245 252
238 232 231 205 185 212 224 214 213 204 191 185 192 210 200 179 209 231 196 187 208 221 213 217 222 211 199 191 174 174 181 181 177 175 181 191 194 191 188 185 182 185 189 191 191 191 192 195 199 202 205 206 207 208 208 205 205 204 202 203 205 200 181 143 117 127 155 185 209 219 219 218 219 221 224 227 227 230 232 233 237 237 232 233 239 247 252
247 235 231 221 200 209 228 236 233 219 202 194 203 217 194 181 239 254 175 186 226 242 224 219 214 147 139 149 170 188 191 181 176 182 193 198 195 189 185 181 182 189 190 187 184 186 194 199 200 201 204 205 205 206 206 205 204 203 202 200 187 156 138 145 156 161 172 190 209 220 222 220 220 222 224 227 227 228 231 237 242 240 233 233 240 247 250
257 235 218 224 210 203 232 247 245 229 205 197 208 204 179 180 208 214 159 185 237 248 224 198 157 142 162 187 194 194 192 179 178 191 201 198 189 182 181 183 187 189 186 184 187 193 199 200 201 203 204 202 203 206 207 207 204 201 196 180 159 157 170 179 174 167 177 194 208 220 224 219 219 223 225 226 226 226 230 237 243 240 234 236 242 247 248
265 247 208 202 181 184 244 249 235 222 208 206 220 212 200 192 172 166 188 215 234 226 176 174 190 180 188 204 202 194 194 189 187 194 194 185 182 186 186 185 187 189 189 191 194 197 199 199 203 206 203 201 205 208 208 205 200 192 180 167 165 171 176 174 169 171 184 196 205 218 224 219 220 226 227 226 227 228 230 236 241 240 237 240 245 247 246
267 267 196 141 152 206 239 240 213 205 201 204 213 214 208 202 181 188 230 240 243 187 164 185 200 199 202 208 199 189 184 182 182 182 180 184 188 188 188 191 194 193 189 187 191 197 201 204 207 208 206 207 211 210 205 200 192 181 170 165 166 168 169 170 170 175 186 195 203 214 219 216 219 226 228 228 229 231 232 235 240 241 240 243 246 246 245
265 299 91 139 216 230 241 263 203 197 198 192 190 188 198 211 222 242 259 259 243 216 206 204 196 190 198 173 155 160 161 164 166 168 177 188 187 184 188 193 193 187 176 173 182 191 199 204 206 207 210 212 212 207 200 192 182 171 164 162 164 166 169 172 173 178 188 195 202 211 215 212 215 221 225 228 232 234 235 237 240 242 244 246 246 246 246
252 324 134 198 239 251 255 303 48 108 150 145 135 112 263 237 216 208 232 256 248 233 241 238 159 137 107 59 54 165 171 165 164 171 182 185 183 186 190 190 189 184 177 178 184 189 195 200 202 207 212 211 206 199 191 182 172 167 164 164 165 167 172 176 180 187 193 197 202 210 213 210 211 215 221 228 233 237 239 241 243 245 246 246 246 246 247
176 174 231 248 293 313 266 314 36 90 107 133 140 150 218 231 209 189 213 263 261 226 211 176 135 119 98 77 25 338 227 174 164 160 170 172 174 179 176 175 179 177 178 185 190 191 193 199 205 210 211 207 199 187 177 172 167 165 165 166 168 173 181 185 187 192 196 198 202 207 211 212 213 217 222 229 235 240 242 242 242 244 245 245 246 248 248
116 112 272 298 109 209 228 247 244 158 132 169 161 138 171 238 314 192 198 231 239 196 147 149 147 115 94 122 253 324 356 22 64 65 88 123 136 135 128 132 146 158 170 179 183 185 188 197 208 211 208 200 189 176 170 168 165 165 168 173 177 185 190 189 188 192 194 196 198 201 209 218 219 219 223 231 239 243 242 241 243 244 245 246 247 248 247
75 129 164 203 190 208 234 252 263 289 169 195 150 120 162 262 340 355 182 199 198 132 124 151 137 121 139 184 245 314 360 42 61 64 65 68 73 74 76 89 111 137 153 152 152 164 176 188 201 205 200 192 181 173 171 169 168 170 176 183 189 193 192 187 186 190 191 193 195 199 208 218 218 218 226 235 242 245 244 244 245 245 244 246 248 248 247
297 144 175 219 212 223 268 285 299 310 289 162 115 121 201 275 329 354 137 183 172 125 116 107 85 104 168 174 206 295 53 73 67 76 81 81 89 94 94 100 110 121 130 131 137 157 173 183 190 191 189 185 179 176 174 172 176 183 188 192 194 194 189 185 187 190 191 195 199 200 207 215 216 219 230 238 242 246 246 244 243 243 244 247 249 252 252
324 318 213 247 255 253 288 308 307 309 326 98 123 179 229 290 327 60 99 126 159 119 109 98 76 58 188 166 154 65 79 75 59 60 79 86 87 93 101 105 107 111 118 129 144 161 174 178 179 182 182 181 179 178 177 181 190 195 195 194 192 188 187 189 190 191 194 198 201 201 204 210 214 221 230 238 241 243 242 239 239 242 245 246 249 254 255
356 316 247 266 247 252 335 326 313 321 83 150 194 207 248 304 337 86 85 74 89 96 94 97 102 97 91 100 85 68 69 69 56 46 52 66 68 70 78 90 100 108 111 118 132 146 162 171 178 184 184 181 180 181 185 194 201 201 196 193 189 187 189 189 189 192 196 198 201 204 204 206 213 221 230 238 242 242 239 237 239 241 243 244 247 252 256
55 319 298 224 192 279 337 335 328 24 102 187 195 135 49 337 21 80 76 61 67 87 96 102 108 106 90 78 74 70 69 70 65 56 51 56 60 64 70 78 93 103 102 107 124 139 160 176 187 193 191 185 182 185 193 202 205 201 195 192 188 186 188 188 188 193 196 197 200 204 207 210 216 224 232 241 244 241 237 235 236 238 241 242 245 252 258
109 263 271 238 213 280 326 344 359 4 15 167 160 118 93 57 49 75 79 68 59 78 90 88 81 78 72 66 68 70 69 70 69 63 56 53 50 55 65 73 91 106 110 116 127 143 169 188 196 199 197 189 181 185 197 203 201 196 192 188 183 181 183 185 188 192 196 198 201 206 209 212 218 226 235 243 242 236 232 230 231 234 237 239 244 253 264
155 193 233 253 246 281 334 4 5 352 17 42 45 81 95 76 39 50 75 70 56 69 83 81 72 70 68 64 65 66 66 69 70 70 66 62 59 59 59 61 70 91 110 123 137 156 178 197 203 201 199 193 183 183 192 196 194 190 184 181 180 179 180 183 185 189 193 196 203 207 209 212 220 228 234 236 232 228 226 226 228 232 235 240 249 260 273
147 166 247 284 302 8 14 7 356 7 30 26 22 59 77 68 53 59 68 62 41 47 73 78 72 69 72 68 61 60 65 64 61 66 66 58 59 62 59 61 72 93 115 128 146 164 179 200 206 201 202 203 194 188 188 189 188 184 179 178 179 180 183 185 186 189 192 196 202 207 209 215 226 232 232 230 225 222 221 221 227 236 244 251 262 274 284
138 153 263 307 325 357 29 17 12 28 33 15 16 55 69 71 71 68 62 58 43 34 60 78 77 66 68 70 61 51 58 60 56 64 67 60 62 65 54 47 73 122 143 148 162 175 182 195 200 195 198 205 199 190 185 182 182 181 179 178 180 182 186 189 192 197 201 203 207 212 218 226 231 232 231 229 223 218 218 222 232 245 254 264 276 285 289
139 152 172 255 299 322 32 55 43 31 31 24 22 42 60 65 67 65 58 56 54 41 44 69 83 79 73 82 89 85 83 89 92 98 107 114 113 113 117 131 159 175 178 172 176 181 183 187 187 181 182 190 188 182 179 181 183 181 180 180 181 184 190 195 202 207 210 210 212 217 224 228 225 222 222 222 216 212 219 231 239 248 261 274 283 287 290
91 127 146 181 225 345 360 28 37 2 354 41 55 49 51 56 62 68 64 54 55 58 46 45 72 77 62 60 81 92 97 99 105 130 141 139 130 132 140 151 165 175 178 177 185 198 202 192 184 179 175 174 172 173 178 183 183 180 180 183 184 186 192 200 207 210 211 214 219 220 216 211 208 208 209 210 209 211 222 234 242 255 272 280 284 288 293
166 142 151 178 160 106 348 13 40 353 317 39 73 60 54 57 55 63 69 62 53 55 50 44 60 66 42 23 41 56 52 33 357 341 99 118 114 114 119 123 125 129 151 208 212 213 208 192 184 179 170 162 164 174 181 184 184 182 178 174 174 178 185 196 208 213 211 210 209 205 197 194 201 210 214 217 220 222 229 242 255 268 276 280 286 290 291
225 360 69 197 121 95 64 27 38 8 331 32 68 60 57 68 66 65 72 68 56 50 46 43 51 55 43 40 55 58 47 34 22 35 54 62 62 61 66 71 72 85 187 207 208 202 192 184 182 180 172 167 171 177 174 171 175 172 157 139 130 135 147 163 182 193 193 191 189 189 194 206 215 216 217 223 233 239 247 258 270 280 281 282 286 286 284
353 15 59 69 73 82 70 45 43 33 12 34 59 51 46 62 66 65 68 65 60 59 52 43 44 51 52 52 52 50 38 18 18 30 34 33 30 27 34 44 42 227 202 198 198 191 184 182 179 176 175 175 179 178 168 156 149 142 131 120 109 102 105 119 150 168 179 194 204 207 215 223 224 219 215 217 227 248 270 277 280 283 279 274 274 270 263
42 3 51 81 84 87 82 66 55 43 31 36 45 38 37 48 54 58 62 59 54 58 57 48 41 44 51 54 49 45 39 23 21 24 24 26 27 24 21 23 278 229 209 202 198 189 183 180 175 172 172 171 170 168 162 154 144 134 127 121 113 115 134 169 212 225 219 219 218 214 213 216 216 215 219 224 229 240 259 271 272 262 245 232 230 229 237
94 17 15 60 68 68 71 65 49 37 37 43 42 29 23 34 48 55 58 58 55 53 55 51 39 40 46 48 44 41 38 32 30 28 25 21 16 355 304 256 234 219 206 199 192 187 182 176 171 169 167 162 155 151 153 154 152 149 151 155 162 168 175 189 213 229 224 218 215 212 210 210 212 219 231 239 240 236 228 220 213 200 186 181 187 202 229
88 43 27 48 45 35 50 72 68 53 45 42 43 35 13 13 38 52 52 51 52 51 48 44 40 41 40 38 37 38 35 31 29 27 24 16 353 316 274 255 234 210 199 193 188 184 178 172 172 172 168 162 155 152 156 161 164 173 186 190 186 183 185 202 227 231 223 215 211 210 209 210 218 231 237 237 237 233 224 215 202 185 175 176 176 176 259
12 39 80 91 87 65 62 76 84 83 74 50 52 83 42 21 44 50 47 41 40 42 41 38 40 44 39 33 33 32 25 24 22 15 10 6 360 347 299 255 228 204 199 193 184 179 176 175 176 175 172 170 170 170 172 176 177 182 188 188 185 187 200 219 220 214 208 204 201 202 207 213 222 229 230 229 229 228 224 217 204 186 180 182 176 171 270
19 26 68 104 123 135 136 116 90 87 94 109 109 89 81 70 60 52 44 36 34 36 31 29 34 42 40 35 36 31 20 17 9 356 352 356 2 5 341 254 222 203 199 192 182 181 183 184 183 182 183 186 190 196 206 210 203 197 195 193 191 191 189 185 181 179 180 183 186 191 203 210 214 214 211 212 217 218 213 206 200 191 189 188 184 200 248
25 21 44 78 115 139 136 107 81 65 53 55 65 63 63 71 72 62 46 38 41 40 27 19 26 31 29 26 26 21 15 7 358 354 353 355 3 10 6 246 198 185 193 194 188 188 192 195 198 196 194 200 219 236 229 217 209 201 195 188 183 178 170 165 165 167 170 171 172 176 184 189 193 195 192 193 203 207 200 193 193 198 204 201 198 214 236
58 37 41 44 58 81 80 70 68 64 56 65 73 66 57 65 71 61 42 35 37 31 22 22 25 20 12 5 4 8 12 8 359 356 356 356 1 8 8 300 209 211 215 205 196 194 198 205 209 207 207 223 247 253 233 208 193 178 169 167 166 164 161 160 162 164 165 164 163 168 175 179 181 185 183 182 191 196 194 189 191 202 213 212 210 220 231
107 90 74 60 57 66 67 66 73 71 62 64 66 58 50 58 61 51 35 29 25 18 19 22 14 357 348 346 349 356 3 1 354 352 353 353 353 358 359 339 277 259 245 223 207 201 201 203 212 225 230 226 223 226 220 196 176 162 157 158 157 156 157 158 159 161 161 160 162 169 175 178 183 190 190 187 190 194 194 194 198 202 208 212 216 225 231
154 120 94 79 75 73 66 58 67 69 60 56 58 51 44 49 52 46 35 24 16 19 25 11 349 341 340 339 341 347 350 348 348 349 348 343 340 342 345 339 313 284 257 231 215 209 208 212 219 226 225 213 200 198 196 183 170 160 157 157 156 157 161 164 165 165 162 159 164 173 179 184 194 201 199 195 191 191 193 197 198 198 202 209 216 223 228
129 114 110 121 114 104 96 87 83 80 67 53 47 44 42 41 38 34 34 28 17 10 360 342 333 336 338 337 341 350 351 350 349 342 332 328 328 331 332 327 311 282 244 221 210 206 207 211 213 209 202 192 183 179 178 175 170 167 165 162 163 169 173 172 171 169 164 164 171 179 183 190 199 204 204 198 185 179 184 189 192 193 198 204 213 221 223
95 100 105 104 92 99 110 109 105 100 87 69 54 44 40 37 32 30 31 27 10 353 344 341 341 346 351 355 358 359 357 353 341 327 320 320 324 327 327 321 299 247 207 204 205 205 207 211 204 192 183 178 175 174 177 181 185 181 174 174 177 179 175 172 171 170 168 171 176 180 182 185 187 190 193 187 174 168 174 180 185 191 195 195 200 207 207
73 79 76 65 63 73 85 89 102 116 113 102 91 73 57 48 42 32 19 12 9 4 359 359 0 3 7 9 9 9 7 359 344 326 320 323 327 330 332 331 315 134 116 120 175 196 198 199 193 185 178 173 173 178 182 184 183 180 181 182 178 173 171 171 170 167 167 170 171 169 168 170 171 171 171 169 167 168 172 177 183 188 192 192 191 193 196
52 61 62 53 54 62 61 56 70 93 97 89 82 72 59 45 36 29 24 25 22 18 17 18 16 15 20 24 29 37 32 13 351 333 327 330 335 345 6 38 72 87 84 93 152 165 161 158 179 199 189 172 160 159 161 164 173 180 183 181 177 172 170 169 165 161 160 161 161 162 162 163 165 166 165 168 175 177 177 182 187 191 192 193 193 195 201
42 47 51 47 46 49 47 46 54 64 67 61 54 48 41 33 29 28 28 28 25 22 23 26 25 26 34 39 39 39 32 17 7 3 1 355 360 27 51 58 68 75 70 143 170 166 158 149 153 192 184 158 149 150 155 164 172 173 173 174 174 172 169 167 165 161 158 155 158 162 164 165 168 171 173 179 186 184 182 185 191 197 200 199 200 204 211
42 41 42 42 42 41 39 40 43 45 45 45 42 35 32 31 32 31 27 23 22 23 22 21 21 25 33 38 36 29 23 21 22 27 27 24 34 57 57 52 49 36 359 170 163 161 161 160 155 152 150 153 158 161 163 168 171 170 170 171 171 170 170 170 165 160 157 156 159 164 166 168 172 175 178 183 187 191 194 197 202 210 214 213 212 214 218
49 43 41 43 43 40 35 33 31 30 32 37 38 33 29 28 29 28 22 14 14 19 21 19 17 17 17 19 17 11 12 18 25 27 25 23 33 55 57 47 38 43 128 158 156 154 157 164 161 153 154 166 174 172 170 172 175 173 170 169 168 168 170 170 165 163 164 165 167 171 174 176 180 184 188 193 200 206 212 215 220 224 227 227 225 223 225
40 41 44 44 41 38 36 32 25 23 27 32 34 33 30 26 24 21 13 6 8 16 21 20 16 10 8 9 6 360 1 9 17 18 17 18 24 37 42 43 51 80 130 153 156 153 155 159 158 156 160 167 175 179 178 178 177 173 169 170 170 170 171 170 169 170 172 174 178 184 186 190 197 204 208 214 220 225 227 231 236 240 244 244 240 233 229
23 27 33 33 30 28 27 25 23 22 24 27 29 29 26 22 19 15 9 7 9 13 17 18 15 12 12 11 5 1 3 9 13 15 15 14 10 5 15 53 88 103 128 146 151 153 156 156 157 162 166 172 179 183 180 179 179 175 170 169 172 174 176 178 181 187 191 195 202 208 211 216 223 227 231 236 240 243 244 244 246 248 249 251 249 244 239
10 14 21 21 14 15 18 19 19 19 15 14 17 21 21 17 15 11 5 5 7 8 8 8 7 6 5 4 1 360 1 4 8 13 14 16 18 15 9 53 131 141 151 154 154 157 164 165 165 166 167 166 166 165 162 164 168 168 168 170 174 176 179 185 193 202 211 217 224 231 239 247 252 254 255 256 257 257 258 259 260 260 258 256 254 252 248
360 5 8 1 357 4 14 16 16 14 3 359 7 18 21 15 11 8 1 357 357 357 356 355 353 351 352 352 352 352 354 357 1 4 6 12 25 28 18 10 192 191 191 188 185 192 193 182 173 168 165 166 165 163 159 155 155 159 164 171 174 176 178 181 183 188 195 204 215 224 233 245 253 257 260 261 263 265 268 270 273 275 272 267 263 258 254
355 356 352 346 349 358 3 3 2 358 345 347 2 20 22 11 6 4 360 354 350 349 348 347 344 344 342 339 338 339 344 349 354 356 356 356 4 7 5 2 297 209 212 219 227 226 203 189 180 173 169 172 178 180 176 171 169 173 177 177 176 176 175 172 173 178 184 191 199 205 213 226 240 252 265 271 273 276 279 280 282 284 284 281 277 271 264
349 349 348 341 336 339 343 344 343 342 343 349 1 13 11 4 359 358 356 352 347 346 346 344 342 341 339 332 327 328 331 334 335 336 331 317 317 333 349 354 324 228 222 227 232 224 204 197 196 190 185 189 198 200 193 184 181 187 191 189 186 184 183 183 187 191 194 198 206 211 217 229 239 249 263 274 280 284 287 288 289 289 288 286 285 283 277
344 345 342 327 311 310 323 330 332 336 342 347 344 346 352 355 354 351 349 348 345 344 346 347 346 346 343 331 316 308 308 314 320 323 328 333 333 337 344 344 290 232 226 228 227 218 207 208 214 214 207 203 208 214 212 205 201 201 202 201 199 197 196 197 198 199 202 207 213 217 222 229 237 246 258 270 282 290 293 293 292 289 287 286 287 286 282
343 338 333 323 311 308 314 321 324 326 326 323 322 330 342 347 346 344 345 346 343 339 340 344 349 352 350 336 316 297 287 288 295 307 332 344 342 340 341 335 260 230 233 231 221 217 219 226 232 230 221 214 216 223 225 223 220 218 215 211 209 207 204 203 204 208 212 214 218 224 231 236 241 250 264 277 288 294 297 295 291 286 283 284 287 287 286
345 339 336 330 305 290 294 303 305 297 294 303 317 329 336 339 338 337 338 339 336 332 330 333 338 345 348 341 329 315 296 280 277 289 308 319 323 322 323 316 269 244 244 243 234 233 240 244 243 237 227 221 222 227 228 227 228 229 227 223 219 216 214 217 220 221 219 220 225 231 236 239 243 255 269 280 285 288 292 295 293 286 279 277 281 285 287
351 349 343 331 295 269 266 268 271 277 287 299 312 321 326 329 327 325 328 331 329 323 320 322 324 329 334 335 330 326 319 305 297 298 305 310 310 304 297 290 272 258 255 254 253 255 259 258 252 244 235 228 227 230 232 235 237 238 235 231 228 225 225 229 230 226 224 228 232 235 235 237 244 257 267 273 277 282 287 293 292 286 278 275 276 278 279
339 335 329 320 308 291 278 271 273 282 293 303 310 312 315 316 313 314 322 329 329 320 317 319 320 321 322 321 317 315 313 305 297 295 297 298 300 300 295 288 280 272 265 262 262 263 264 263 258 250 243 238 236 237 238 240 243 244 242 238 234 232 232 234 233 232 233 236 237 236 235 237 243 250 255 262 271 278 283 286 287 285 281 277 276 275 274
335 336 335 328 321 315 307 299 297 301 307 310 308 304 303 303 303 309 319 328 330 323 316 312 311 316 320 318 312 310 307 298 288 287 287 287 290 295 296 294 291 287 281 277 274 271 269 266 261 254 248 245 244 244 245 246 247 248 247 243 239 236 237 239 240 242 244 246 244 242 241 242 243 246 249 256 266 276 279 281 282 283 282 279 276 273 270
Height
685 681 683 687 689 686 685 687 688 690 694 701 705 706 704 706 715 714 706 708 708 695 686 683 679 678 680 681 682 683 683 685 685 687 689 690 692 695 696 699 700 703 705 707 708 710 712 715 717 719 722 724 726 729 732 735 738 740 743 745 746 749 753 758 765 770 776 786 792 793 791 789 789 791 792 793 793 794 795 795 795 797 797 799 800 801 802
683 681 683 685 688 688 686 685 684 685 689 695 696 696 698 700 699 695 695 702 699 686 678 673 670 672 673 675 679 681 681 683 683 685 686 687 689 691 692 695 698 700 702 703 705 708 710 713 714 717 719 721 724 727 729 732 735 737 740 742 746 753 761 767 771 773 778 784 786 785 785 785 787 789 791 791 792 792 793 792 792 794 795 796 797 798 799
686 680 680 684 687 690 689 685 683 684 688 693 694 694 696 701 701 695 697 704 698 681 672 669 670 674 676 677 680 680 679 680 682 685 685 684 685 687 690 693 695 697 699 702 704 707 708 709 711 713 716 718 721 724 726 729 731 734 737 742 749 757 761 764 767 770 774 778 778 779 780 782 785 787 788 789 789 790 790 790 791 792 793 793 794 795 796
691 678 677 683 683 687 692 688 685 686 689 690 690 689 689 692 696 697 702 707 695 676 670 672 673 673 675 677 677 678 678 678 680 682 682 682 684 686 688 691 693 695 698 700 702 703 704 706 709 710 712 716 719 720 722 725 728 733 739 744 749 751 752 755 758 763 767 771 775 780 781 781 783 785 785 785 786 786 786 788 790 790 791 791 792 793 794
692 677 676 679 683 697 702 688 678 681 684 684 683 682 682 681 684 692 697 691 678 668 669 674 674 673 674 673 673 673 674 675 676 677 678 681 683 684 685 687 689 691 693 695 697 698 700 703 705 707 710 712 714 716 719 723 728 734 739 742 744 746 750 755 757 760 765 771 776 779 779 780 783 784 784 783 783 783 783 785 788 789 789 789 789 790 791
690 681 676 681 696 708 696 672 664 669 672 676 678 677 675 675 677 680 680 674 669 669 669 668 667 668 666 663 663 664 666 670 674 675 677 680 680 681 683 684 685 687 689 692 694 696 699 701 703 706 708 709 711 714 719 723 728 733 737 739 742 745 750 753 755 758 764 769 770 770 772 776 780 781 781 781 780 781 782 784 785 786 786 786 787 788 788
692 687 685 697 708 697 674 663 663 663 661 664 670 674 674 675 677 676 672 669 668 668 664 660 659 661 661 660 661 663 663 666 670 673 676 677 678 680 682 682 684 686 688 691 693 694 697 700 702 705 707 708 711 715 718 723 727 731 734 737 740 743 745 748 750 753 757 760 761 762 766 769 772 775 777 778 778 779 780 781 782 783 783 784 784 785 786
697 694 695 702 697 677 664 664 663 662 664 666 671 679 679 676 676 675 670 666 665 666 665 663 660 660 661 664 665 665 664 664 666 669 671 673 675 677 678 679 681 683 686 688 691 693 696 699 701 703 704 707 710 713 717 721 725 728 731 734 736 739 741 743 744 747 751 753 755 759 763 766 767 769 772 773 774 777 778 779 780 780 781 781 782 782 783
697 699 698 692 686 679 674 669 664 665 669 670 672 678 679 674 675 675 669 665 665 666 665 665 663 660 662 667 668 667 667 666 665 666 666 668 671 673 675 677 680 682 685 688 690 692 695 697 699 700 703 705 708 712 715 718 721 725 727 730 732 734 734 735 737 740 745 749 753 758 764 766 766 766 768 769 771 773 775 776 776 777 777 778 779 780 780
696 699 699 695 695 693 679 668 665 665 665 668 671 674 675 673 672 671 668 667 668 667 666 666 663 661 668 676 674 669 669 668 666 667 667 668 671 673 675 678 681 684 687 688 689 691 693 695 697 699 702 705 707 711 713 715 718 721 723 725 726 726 727 730 734 739 743 747 752 757 763 765 764 764 765 766 767 770 772 773 773 774 774 775 776 776 777
698 696 696 697 696 686 672 666 665 664 665 667 668 674 676 672 670 669 668 670 670 668 669 667 662 664 675 681 676 670 668 668 667 668 670 671 674 676 678 681 684 687 689 689 690 691 692 695 697 699 702 705 707 709 711 713 716 718 719 720 720 722 726 730 734 738 741 745 747 752 757 760 760 761 763 763 764 767 769 770 770 771 772 772 772 773 774
704 699 695 694 687 676 670 668 665 665 664 660 668 684 681 670 669 668 667 670 669 665 666 666 665 669 675 677 674 669 667 668 669 669 671 672 675 677 680 682 684 687 689 690 690 692 693 695 697 699 702 704 706 708 710 712 714 714 715 716 718 723 727 730 732 735 738 740 743 746 750 754 758 761 762 761 762 765 766 767 768 768 769 769 769 770 771
703 703 698 692 683 674 672 670 666 664 660 659 673 684 676 668 670 667 665 669 666 661 662 665 668 672 673 671 671 668 666 669 671 671 672 673 674 676 678 678 680 683 686 689 690 692 694 696 698 699 701 703 705 707 709 710 711 711 714 717 720 724 727 728 731 733 735 738 741 743 747 752 757 760 760 759 760 762 764 764 764 765 765 766 767 767 768
706 711 704 694 684 675 673 672 665 661 662 668 675 675 670 671 671 664 663 668 664 661 663 666 670 675 674 671 670 669 670 673 675 676 677 676 677 678 678 679 680 683 686 688 690 692 694 696 697 699 700 702 704 706 708 709 710 712 714 717 720 723 725 727 730 733 735 738 741 744 746 750 754 756 756 757 759 760 761 761 761 761 762 763 764 765 765
711 713 702 694 689 681 676 673 666 662 666 670 672 671 672 673 669 665 667 668 665 664 665 667 670 672 671 671 671 671 673 675 677 679 680 681 682 682 681 682 684 685 688 691 692 693 694 696 697 698 700 702 703 705 707 708 710 713 714 717 719 722 724 727 729 733 735 737 740 743 744 747 750 752 753 756 757 758 758 758 758 758 759 761 762 762 762
708 709 699 694 693 687 682 679 675 673 671 668 668 670 672 672 670 668 668 669 667 665 665 667 669 668 669 671 672 672 675 677 678 681 683 684 685 685 685 686 687 687 690 691 693 695 696 697 699 699 700 702 704 705 707 708 711 713 714 716 719 721 724 726 729 732 734 735 738 740 742 745 748 750 752 754 755 755 755 755 755 756 757 759 760 760 760
702 705 701 697 692 687 682 681 680 677 673 670 670 670 670 672 672 670 670 672 671 666 665 667 668 669 672 673 672 674 676 677 679 682 684 685 686 687 688 689 690 690 691 692 694 697 699 700 701 701 702 702 703 705 706 708 710 712 714 716 718 721 724 726 728 731 733 735 737 739 741 743 746 748 750 752 752 752 752 752 753 754 755 757 757 757 758
696 699 698 694 689 685 682 681 681 678 675 675 674 672 672 674 673 672 673 675 674 671 670 670 672 676 676 676 676 677 678 680 682 683 684 686 687 688 690 691 691 692 693 695 697 699 701 702 703 702 703 703 703 704 706 708 710 712 714 716 719 721 723 725 728 730 732 734 737 738 740 742 744 746 748 748 749 749 749 749 751 752 753 754 754 755 756
691 695 698 695 691 687 684 684 684 680 678 679 677 675 676 676 674 673 674 676 677 677 675 675 678 681 679 680 682 683 682 684 685 684 685 687 687 689 691 693 694 695 697 698 698 699 701 702 702 703 703 703 704 705 706 708 711 712 714 716 718 720 722 724 727 729 731 733 735 737 739 741 742 744 745 746 746 746 746 747 748 749 751 752 753 754 755
689 690 694 696 695 689 685 685 686 684 683 683 681 679 679 677 675 675 676 677 679 680 680 680 682 683 684 685 686 686 686 687 687 686 687 688 688 689 691 693 696 698 699 699 698 698 700 701 701 703 704 704 705 707 708 710 711 712 714 716 717 719 722 724 726 728 730 732 733 735 738 739 740 741 743 745 744 743 744 745 746 748 749 750 752 753 754
694 692 694 698 698 693 687 684 686 687 687 685 683 682 681 679 678 677 678 679 681 682 684 685 684 685 688 688 687 688 690 690 689 689 689 689 690 691 692 693 695 695 696 697 697 699 700 701 701 703 704 705 707 708 709 711 712 713 715 716 718 720 721 723 726 727 729 731 733 735 737 738 740 742 744 744 743 742 743 744 745 746 748 749 751 753 753
700 694 692 695 695 694 692 687 687 689 689 686 685 685 683 682 682 681 680 682 683 684 685 685 686 688 689 689 690 691 692 693 694 693 691 691 691 691 691 691 691 691 694 696 698 701 702 702 703 704 705 707 708 708 709 711 712 714 715 717 719 721 721 723 725 727 729 731 732 734 735 737 740 742 743 742 742 742 743 743 744 745 747 748 750 751 752
702 694 690 691 691 692 694 691 689 691 692 689 688 689 688 687 685 683 683 684 686 687 687 687 688 690 690 691 692 692 694 695 695 694 693 693 692 691 690 689 690 692 695 698 700 702 703 703 704 705 706 707 708 709 710 711 712 714 716 718 720 721 723 724 725 726 729 730 731 732 733 735 738 739 740 741 741 742 742 743 743 744 746 748 749 751 751
702 697 693 692 692 693 696 694 693 693 694 693 694 695 694 691 688 685 686 687 689 690 691 691 691 692 692 692 692 692 694 694 693 692 692 691 690 691 690 691 694 696 698 700 702 702 702 703 704 705 706 707 708 709 710 711 713 714 715 717 719 720 723 725 726 726 727 729 730 731 732 733 735 737 738 739 741 741 742 742 743 744 746 747 749 750 751
704 705 699 694 694 696 695 694 694 695 695 696 698 699 697 695 692 689 690 692 693 693 694 695 696 695 693 692 692 693 694 694 693 692 691 691 692 693 694 696 698 699 700 701 701 701 702 703 704 705 706 707 707 709 710 711 712 713 714 715 717 718 721 724 725 726 727 728 730 730 731 732 734 735 736 738 739 740 741 742 743 745 746 747 749 749 750
703 707 703 697 696 696 694 693 697 699 697 697 699 701 701 699 698 696 695 696 696 696 697 698 698 696 694 693 694 694 694 694 694 694 694 696 697 697 698 699 699 698 699 700 700 701 702 703 704 705 706 706 707 709 710 711 712 713 713 714 715 717 719 722 724 725 727 728 729 729 730 732 733 734 735 737 738 740 741 743 744 745 746 747 748 748 749
702 705 703 701 703 703 700 700 701 702 701 701 702 703 705 705 704 701 699 699 699 699 700 700 699 697 696 695 696 696 696 697 697 697 698 699 699 699 699 699 698 698 698 699 700 701 702 703 704 705 705 706 707 709 710 711 712 712 713 714 715 717 719 721 723 724 725 726 728 728 729 730 731 733 735 737 739 741 742 743 744 745 745 746 747 748 749
706 705 704 705 709 710 708 707 706 705 706 708 708 708 708 709 707 705 704 703 702 702 702 702 701 700 699 699 699 699 699 699 699 700 700 700 700 700 699 699 699 698 698 698 700 701 702 703 704 704 705 707 708 708 710 711 711 712 713 714 716 718 719 720 721 723 724 725 726 727 728 730 731 734 736 738 740 741 742 742 743 744 745 746 747 748 748
710 709 707 707 709 711 711 711 710 709 709 710 710 710 710 710 709 708 708 707 706 705 705 705 704 703 702 702 702 702 702 702 702 701 701 701 700 700 699 699 700 699 698 699 700 701 702 703 704 705 707 707 708 709 710 711 711 712 713 714 716 717 718 719 720 722 724 725 726 727 729 730 732 734 736 738 739 740 741 742 743 744 745 746 747 747 747
713 712 712 711 710 711 711 710 709 709 709 710 710 711 711 711 710 710 710 709 709 708 708 707 706 705 704 704 704 704 704 703 703 702 702 701 700 700 700 700 700 699 699 699 699 700 702 703 704 706 707 708 709 709 709 709 711 712 712 713 715 716 717 719 720 722 723 724 726 727 729 730 732 733 735 736 738 739 740 742 743 744 745 745 746 746 746
713 712 713 713 712 711 710 710 711 711 712 712 712 713 713 711 711 711 711 711 710 710 710 709 708 707 707 706 705 705 704 703 702 702 701 701 700 700 700 700 699 699 699 698 699 700 701 702 703 704 705 706 708 708 708 708 709 710 711 713 714 715 717 719 720 722 723 724 726 728 729 731 732 732 733 735 737 738 740 741 742 743 744 744 745 745 746
718 718 717 717 715 714 714 714 714 714 714 713 713 713 713 712 712 712 713 712 712 712 711 710 710 710 709 708 707 706 704 703 702 701 701 700 700 700 699 699 698 697 697 697 698 699 699 701 702 703 704 705 706 707 709 710 709 709 711 713 715 716 718 719 720 722 723 725 726 728 729 730 731 732 733 735 736 737 739 741 742 742 743 743 744 744 745
720 719 718 718 717 716 716 716 715 715 714 714 714 714 714 713 713 714 714 714 714 714 713 713 712 712 710 709 708 706 704 703 702 701 701 700 699 698 698 697 696 696 696 696 697 698 698 699 701 702 704 705 705 707 711 712 711 710 711 713 715 717 718 718 720 721 723 724 726 727 728 730 731 732 733 734 735 737 738 739 740 741 742 742 743 744 744
718 717 718 718 717 716 716 716 716 716 716 716 716 715 715 715 715 716 715 715 715 715 714 714 713 712 711 709 708 706 705 704 704 703 702 700 699 698 697 696 695 695 695 695 696 697 698 699 700 702 704 704 705 707 709 710 710 711 712 713 714 715 717 718 720 721 722 724 725 727 728 730 730 731 732 733 735 736 738 738 739 740 741 741 742 743 744
719 719 720 719 718 717 717 717 717 717 717 718 718 718 718 718 717 717 716 716 716 715 715 714 713 711 710 709 707 706 705 705 704 703 701 700 698 697 697 696 696 696 696 696 697 698 699 700 701 702 703 704 705 706 708 709 709 710 711 712 713 715 717 718 720 721 722 724 725 727 728 729 730 731 732 733 734 736 737 738 739 739 740 741 741 742 743
720 720 720 720 720 719 718 718 719 719 719 719 720 719 719 719 718 718 717 717 716 716 715 714 712 711 709 708 708 707 706 705 704 702 700 699 698 697 697 697 697 697 697 698 699 699 700 701 702 702 702 703 705 707 708 709 710 711 712 713 714 716 718 719 720 721 723 724 725 727 728 728 729 731 732 733 734 735 736 737 738 738 739 740 740 741 742
721 720 720 720 720 719 719 719 719 718 718 719 719 719 719 718 718 717 717 716 716 715 714 713 712 711 710 709 708 707 706 705 704 702 701 699 698 698 698 698 698 699 699 699 699 699 700 702 704 705 704 703 704 707 708 710 711 712 713 715 717 718 719 719 721 722 723 724 725 726 727 728 729 730 731 732 733 734 735 736 737 737 738 739 740 741 741
721 721 720 720 720 719 719 719 718 718 718 718 718 718 717 717 716 715 715 714 714 714 713 712 711 710 710 709 708 707 707 705 704 703 701 700 699 699 699 699 700 700 700 700 700 700 700 701 704 707 708 707 706 707 708 710 711 713 714 715 716 717 718 719 721 722 723 724 726 726 727 728 729 730 731 732 733 734 735 736 736 737 737 738 739 740 741
723 722 721 720 720 719 719 718 718 718 718 718 717 717 717 716 715 715 714 714 713 713 712 711 710 709 709 709 708 707 707 706 704 704 703 702 701 701 701 701 701 701 700 700 700 701 702 702 703 706 708 709 710 709 709 711 712 713 714 715 716 717 719 720 721 722 723 724 725 726 727 728 729 730 731 732 733 734 735 735 736 736 737 737 738 739 739
724 723 722 721 720 720 719 719 719 719 718 718 718 717 717 716 716 715 714 714 713 713 712 711 709 709 708 708 708 708 707 706 706 705 704 703 703 702 702 702 702 702 701 701 701 702 703 704 704 705 707 709 712 712 711 711 712 713 714 715 716 718 719 720 721 723 724 724 725 726 727 728 729 730 731 732 733 733 734 734 735 735 735 736 737 737 738
723 722 721 721 721 721 720 720 720 719 718 718 718 717 717 717 716 715 715 714 713 713 712 711 710 709 709 708 708 708 707 707 706 706 705 704 704 704 704 704 703 703 703 703 703 704 705 705 706 707 708 710 712 712 712 712 713 714 715 716 717 718 719 720 721 722 723 724 725 726 727 728 729 730 731 731 732 733 733 733 734 734 734 734 735 735 736
722 722 721 721 721 721 721 721 720 720 719 719 718 718 718 717 716 716 716 715 714 713 713 712 711 711 710 710 709 709 708 708 707 706 706 705 705 705 705 705 705 705 705 705 705 706 706 707 707 708 709 710 711 712 712 713 714 714 715 716 717 718 719 720 721 722 723 723 724 725 726 727 728 728 729 730 731 731 732 732 732 732 732 732 732 733 733
723 723 722 722 722 722 721 721 721 720 719 719 718 718 718 718 717 717 716 716 715 715 714 713 713 712 712 711 711 710 709 708 707 706 706 706 705 705 705 706 705 705 705 706 706 707 707 708 708 709 710 711 712 712 713 713 714 715 715 716 717 718 719 719 720 721 722 723 723 724 725 725 726 727 728 728 729 729 730 730 730 730 730 730 730 730 730
724 724 724 724 723 722 722 721 720 720 720 719 719 718 718 718 717 717 716 716 715 715 714 714 714 713 712 712 711 710 710 709 708 707 706 706 705 705 706 706 706 706 706 706 707 707 708 708 709 710 711 712 712 713 713 714 714 715 715 716 717 717 718 719 720 721 721 722 723 723 724 724 725 726 726 727 727 727 727 727 727 727 727 727 727 727 727
725 724 724 724 723 723 722 721 721 721 720 720 719 719 718 718 717 717 716 716 715 715 714 714 713 713 712 712 711 711 710 709 709 708 708 707 707 707 706 706 706 706 706 707 707 707 708 709 709 710 711 712 712 713 713 714 714 715 715 716 717 717 718 719 719 720 721 721 722 722 723 724 724 725 725 726 726 726 725 725 725 725 725 725 725 724 724
725 724 724 724 723 722 722 722 721 721 721 720 719 719 719 718 718 717 717 716 716 715 715 714 714 713 713 712 711 711 711 710 710 710 709 709 708 708 707 706 706 706 706 707 707 707 708 709 710 710 711 712 712 713 713 714 714 715 715 716 717 717 718 718 719 720 720 721 721 722 722 723 723 724 724 724 724 724 724 724 723 723 723 723 722 722 722
725 725 724 723 723 722 722 722 721 721 721 720 720 720 719 719 718 718 717 717 716 716 715 715 714 714 713 713 712 712 712 711 711 710 710 709 709 708 707 707 706 706 707 707 707 707 708 709 709 710 711 711 712 712 713 713 714 714 715 715 716 717 717 718 718 719 719 720 720 721 721 722 722 722 722 722 722 722 722 722 721 721 721 720 720 720 720
726 725 724 723 723 723 723 722 722 722 721 721 721 721 721 720 719 718 718 717 717 716 716 715 715 715 714 714 713 712 712 712 711 710 710 709 709 708 707 707 707 707 707 707 707 707 708 708 709 709 710 711 711 711 712 713 713 714 714 715 715 716 716 717 717 718 718 719 719 719 720 720 720 720 720 720 720 720 720 720 720 719 719 719 718 718 718
726 725 724 724 724 723 723 723 723 722 721 721 721 721 721 721 720 719 718 718 717 717 716 715 715 714 714 713 712 712 711 711 710 710 709 709 708 708 708 707 707 707 707 707 707 708 708 708 708 709 709 710 710 711 711 712 712 713 713 713 714 714 715 715 716 716 717 717 717 718 718 718 718 718 718 718 718 719 719 718 718 718 717 717 717 717 716
726 725 725 724 724 723 723 723 723 722 722 722 722 722 721 721 721 720 719 718 718 717 716 715 714 713 713 712 711 711 711 710 710 709 709 708 708 707 707 707 707 707 707 707 707 707 707 707 708 708 708 709 709 710 710 710 711 711 712 712 713 713 713 714 714 715 715 715 715 716 716 716 716 716 716 717 717 717 717 717 717 716 716 716 716 716 716
726 725 725 724 724 724 723 723 723 723 722 722 722 722 721 721 721 720 718 718 717 716 715 714 713 712 712 711 711 710 710 710 709 709 708 708 707 707 706 706 706 706 706 706 706 706 706 706 706 707 707 707 708 708 708 709 709 709 710 710 711 711 711 712 712 712 712 713 713 713 714 714 714 715 715 715 715 715 715 715 715 715 715 715 715 715 715
726 725 725 724 724 724 723 723 723 723 722 722 721 720 720 720 720 719 718 717 716 716 715 714 713 711 711 710 710 710 709 709 708 708 708 707 706 706 705 705 705 705 705 705 705 705 705 705 705 705 705 706 706 706 706 707 707 707 708 708 708 709 709 709 710 710 710 710 711 711 711 712 712 712 713 713 713 713 713 714 714 714 714 714 714 713 713